Location: Emblem
(62.4273°N, 6.4710°E)
Time: 15:16:08
(UTC+02:00)

Vanguard 2 - Pass Details

Date: 01 February 2023
Orbit: 553 x 2927 km, 32.9° (Epoch: 26 March)

Event Time Altitude Azimuth Distance (km) Brightness Sun altitude
Exits shadow 03:53:44 11° 178° (S) 5,273 11.5 -34.5°
Drops below altitude 10° 03:54:09 10° 176° (S) 5,300 11.5 -34.5°
Sets 04:00:15 0° 158° (SSE) 5,922 12.0 -33.9°
